Wind_Speed
7 8 10 11 13 13 15 17 18 19 20 20 20 20 20 20 21 21 22 22 23 23 23 23 23 23 24 24 25 25 25 25 26 26 26 27 27 27 27 28 28 28 29
7 7 8 9 12 13 14 15 15 16 18 19 20 20 20 19 20 21 22 23 23 24 25 25 25 25 26 26 26 27 28 28 29 29 29 29 30 30 30 30 31 32 33
7 8 8 9 10 12 13 14 14 14 17 18 19 20 19 19 20 21 22 23 24 24 25 26 26 26 27 27 28 28 29 29 30 30 30 31 31 32 33 34 34 35 36
8 8 10 11 11 12 12 13 14 15 16 18 19 19 19 19 21 22 23 23 24 24 24 25 26 27 27 28 29 30 30 31 31 32 32 33 33 34 35 36 37 38 39
8 9 9 11 11 11 12 12 14 15 16 16 17 18 19 20 21 22 23 23 23 24 25 25 26 27 29 29 30 31 32 33 34 34 35 36 36 37 37 39 40 41 42
9 9 10 11 11 11 11 12 13 14 15 16 17 18 19 20 21 22 23 24 24 25 26 27 28 29 30 31 32 33 33 35 36 37 38 39 40 40 41 42 43 44 45
11 11 11 11 12 12 12 13 14 15 16 17 18 18 19 20 20 21 22 23 24 25 27 28 30 31 31 32 33 35 36 38 38 39 40 41 43 44 45 46 46 48 49
15 14 14 14 14 14 15 15 15 15 15 17 17 18 20 21 21 21 22 24 25 27 28 29 30 32 33 34 35 37 38 39 40 42 43 44 46 47 48 49 50 52 53
17 16 16 16 16 16 16 16 16 17 18 18 18 18 19 20 20 22 24 26 27 28 30 31 32 34 35 37 39 40 41 42 44 45 47 48 50 50 52 53 54 55 56
20 19 19 19 18 18 18 18 18 19 20 20 19 20 21 22 23 24 26 27 29 30 32 33 35 37 39 41 42 43 44 46 46 48 50 51 52 53 54 55 56 57 59
22 22 21 21 20 20 20 21 21 21 22 21 22 22 23 24 25 27 28 30 31 32 34 35 37 38 40 42 43 45 47 48 49 51 52 53 55 56 57 59 60 61 62
24 23 22 22 22 22 22 23 23 24 24 24 24 24 26 27 28 29 31 32 34 35 36 38 39 41 42 44 45 47 49 50 51 53 55 56 58 60 61 63 64 65 66
24 25 25 25 24 24 24 24 24 24 25 25 26 26 27 28 30 31 32 34 35 36 38 40 41 43 45 47 49 50 51 52 54 55 57 59 60 62 63 65 65 66 67
26 25 26 26 25 25 25 25 25 25 26 27 28 29 29 30 32 34 34 35 37 38 40 41 43 46 47 49 50 51 52 54 56 57 59 60 61 63 64 64 65 66 66
27 26 26 25 24 25 25 25 26 27 27 28 29 30 31 32 33 34 36 38 39 40 42 43 45 47 48 50 51 52 54 55 57 58 59 61 62 63 64 64 65 64 64
23 24 24 25 24 24 24 25 27 28 28 29 29 30 31 32 34 35 36 36 38 40 42 45 46 47 49 50 51 53 55 56 57 58 59 60 61 61 61 62 62 61 60
22 23 23 23 24 24 24 25 26 27 28 28 30 31 32 33 34 34 35 38 40 42 43 45 46 47 48 50 51 53 54 55 56 56 57 57 57 57 57 57 56 55 55
21 21 22 22 22 23 24 24 25 26 26 27 28 30 31 32 34 35 37 39 40 41 42 43 45 46 47 48 50 51 52 52 52 52 52 52 52 52 52 51 51 50 50
18 18 19 21 22 22 23 23 23 24 25 27 29 30 31 33 34 35 36 38 39 40 41 42 43 44 46 46 47 48 48 48 48 49 49 48 48 47 47 46 45 44 44
17 18 20 20 21 22 22 23 23 25 27 28 30 31 32 34 34 34 35 36 37 38 39 41 42 43 43 44 44 44 44 45 45 45 45 44 43 42 41 40 40 39 39
16 17 18 19 20 21 22 23 24 26 27 28 30 31 32 33 33 34 35 36 36 37 38 39 40 40 40 41 41 41 41 41 41 40 40 39 39 38 37 37 36 35 35
16 16 18 19 20 21 22 23 24 26 27 28 29 30 31 31 32 33 33 34 35 35 36 36 36 37 38 38 38 37 37 37 37 37 36 36 35 35 34 33 33 32 31
15 16 17 18 20 21 22 23 25 26 27 28 28 29 29 30 30 31 32 32 32 32 33 33 34 34 34 34 34 34 34 33 33 33 33 33 32 32 32 31 31 30 29
16 17 18 19 20 22 23 25 26 26 27 27 28 28 29 29 29 29 29 29 30 30 31 31 31 31 32 32 32 32 32 32 32 32 31 31 31 32 31 30 29 28 28
16 18 19 21 22 23 24 25 25 26 26 26 27 27 27 28 28 28 28 28 28 28 28 28 29 29 30 31 31 31 31 31 31 31 31 31 31 31 30 29 28 27 27
19 21 22 23 24 24 24 25 25 25 25 25 25 25 26 26 26 26 25 26 26 26 27 27 27 28 29 29 30 30 31 31 31 30 30 30 30 30 29 29 28 27 26
Wind_Direction
273 261 244 236 233 236 233 233 233 232 232 233 235 239 243 245 246 247 249 251 252 253 255 256 258 259 260 261 263 264 265 268 270 271 273 272 272 274 274 274 274 274 274
271 256 243 235 235 237 235 232 235 237 235 235 238 241 244 246 248 250 251 255 256 257 258 259 259 261 262 263 264 265 266 269 270 271 272 272 272 273 273 273 274 274 274
276 257 249 241 241 240 238 238 241 242 239 239 240 241 243 246 249 253 257 258 258 259 261 261 262 264 264 265 265 266 267 269 271 271 271 272 272 272 273 273 274 275 275
287 264 256 250 247 242 241 240 241 243 243 243 243 244 247 249 252 256 259 262 261 262 264 266 267 267 267 266 267 268 269 271 272 272 273 273 273 274 274 275 275 276 276
288 272 266 260 255 247 243 242 240 241 246 247 246 248 251 255 257 259 260 261 262 263 265 266 267 269 269 268 269 270 270 272 273 273 274 274 275 276 276 276 277 276 276
287 275 269 264 261 257 251 251 249 249 251 250 250 253 257 260 264 267 266 265 264 265 265 267 268 269 271 271 271 271 272 274 275 275 275 275 276 277 277 278 278 278 278
280 275 269 266 262 262 263 259 257 257 258 255 255 258 260 262 265 266 265 267 268 267 268 268 269 270 272 272 273 273 275 276 278 278 277 278 278 278 278 279 279 279 279
276 274 270 267 264 263 263 264 260 259 258 258 259 261 264 266 267 267 268 268 269 270 271 272 274 274 274 274 276 277 277 278 278 278 279 279 278 278 278 279 279 280 280
273 271 268 266 263 263 264 266 263 261 262 262 262 263 265 268 271 273 273 272 273 274 275 274 275 276 278 278 279 278 279 279 280 280 280 280 280 279 279 280 280 281 281
269 268 267 266 263 261 262 263 262 261 263 265 266 266 268 271 273 275 276 276 277 278 278 278 278 279 281 281 281 281 280 280 281 281 281 281 281 281 281 282 283 283 283
265 266 267 264 263 262 262 265 264 264 265 268 270 270 272 274 274 275 278 279 279 279 280 281 281 281 282 282 283 282 282 283 283 283 283 283 283 283 283 283 283 284 284
263 261 261 262 262 260 263 265 266 265 266 269 272 274 274 275 275 276 279 280 280 281 281 282 282 283 284 284 285 285 285 285 285 285 285 285 285 285 285 285 285 285 285
261 258 259 261 262 261 261 262 265 267 269 272 273 274 275 276 277 278 279 281 282 283 284 284 285 285 285 286 287 286 286 286 286 286 286 286 286 286 286 286 286 286 286
259 258 259 261 262 264 260 263 268 270 271 273 273 275 277 278 280 279 279 281 283 284 285 285 286 286 287 287 287 287 287 288 287 287 287 286 286 287 287 287 287 288 288
256 256 257 258 259 262 264 268 271 271 273 275 277 276 278 280 280 279 280 281 283 284 286 287 288 288 288 288 289 289 289 289 289 289 289 289 289 289 289 289 289 289 289
250 253 257 258 262 264 264 269 272 274 276 278 276 277 280 282 281 281 282 285 286 288 289 290 291 291 291 291 291 292 292 292 292 292 292 292 292 291 291 291 291 291 291
253 255 259 262 263 265 267 271 274 276 278 280 280 280 283 283 284 285 287 290 291 292 293 294 295 295 295 295 295 295 296 296 296 296 296 295 295 294 294 294 294 294 294
255 257 260 264 264 266 270 273 276 278 279 280 282 285 288 288 289 291 293 295 296 297 298 298 298 298 298 299 299 299 300 300 300 300 300 299 298 298 297 297 296 296 296
258 259 263 265 267 271 274 276 279 281 284 286 288 290 292 293 294 296 298 300 301 301 301 301 302 302 303 303 304 304 304 304 305 304 303 302 302 301 301 300 300 299 299
262 263 264 267 268 273 277 280 283 286 288 290 292 295 297 298 299 301 302 303 303 304 305 306 307 307 308 309 310 310 310 310 310 309 309 308 307 306 305 304 304 303 303
265 266 267 269 273 277 280 283 287 291 294 295 297 300 302 303 304 304 306 307 309 310 311 313 314 314 315 316 316 316 315 315 315 315 315 314 314 313 312 310 309 309 308
265 267 271 275 280 282 286 289 292 296 298 300 302 304 305 307 308 310 311 313 315 316 318 319 320 320 321 322 322 322 321 321 321 321 321 321 321 320 318 316 315 314 313
275 278 281 284 287 289 293 296 299 302 303 305 306 307 309 310 312 314 316 318 319 321 322 323 324 326 327 328 329 329 330 330 329 329 328 328 327 326 325 323 321 320 319
285 286 288 290 293 295 298 301 303 304 305 307 308 309 311 313 315 317 319 321 322 324 325 327 328 330 332 334 335 335 335 335 335 335 334 334 333 332 331 329 327 325 324
292 294 296 297 298 300 301 303 304 305 306 308 309 311 313 315 316 318 320 322 324 327 329 331 333 335 337 338 338 338 339 339 339 339 338 338 338 337 336 335 333 331 329
295 296 297 298 300 301 303 304 305 306 308 310 311 313 314 316 317 319 321 323 326 328 331 333 335 337 338 340 341 342 342 342 342 342 342 341 341 341 341 341 339 337 335
Height
5825 5825 5826 5827 5828 5829 5831 5833 5834 5836 5838 5840 5843 5845 5847 5849 5850 5852 5854 5855 5856 5857 5858 5859 5860 5860 5860 5861 5861 5861 5861 5861 5860 5860 5859 5858 5857 5856 5855 5854 5853 5853 5852
5824 5824 5824 5825 5826 5826 5828 5829 5831 5833 5835 5837 5839 5841 5843 5844 5846 5848 5849 5850 5851 5852 5852 5853 5853 5854 5854 5854 5855 5854 5854 5854 5853 5853 5852 5851 5850 5849 5848 5847 5846 5844 5843
5822 5822 5822 5823 5823 5824 5825 5827 5828 5829 5831 5833 5835 5836 5838 5840 5841 5843 5844 5844 5845 5845 5846 5846 5847 5847 5847 5848 5848 5847 5847 5846 5846 5845 5844 5843 5842 5841 5840 5839 5837 5836 5834
5820 5820 5820 5821 5821 5822 5823 5824 5825 5826 5828 5829 5830 5832 5834 5835 5836 5837 5838 5838 5839 5839 5840 5840 5840 5840 5840 5840 5840 5840 5840 5839 5838 5837 5836 5835 5834 5832 5831 5829 5828 5826 5824
5818 5818 5818 5819 5819 5820 5820 5821 5822 5823 5824 5825 5827 5828 5830 5830 5831 5831 5832 5832 5832 5833 5833 5833 5833 5833 5833 5832 5832 5832 5831 5830 5829 5828 5827 5825 5824 5822 5821 5819 5817 5815 5813
5816 5816 5817 5817 5817 5818 5818 5819 5820 5820 5821 5822 5823 5824 5825 5825 5826 5826 5826 5826 5826 5827 5827 5826 5826 5826 5825 5824 5824 5823 5822 5821 5820 5818 5817 5815 5813 5812 5810 5808 5806 5804 5801
5814 5814 5814 5815 5815 5816 5816 5816 5817 5817 5818 5818 5819 5820 5820 5820 5820 5820 5820 5820 5820 5820 5819 5819 5818 5817 5816 5816 5814 5813 5812 5811 5810 5808 5806 5804 5802 5800 5798 5795 5793 5790 5788
5811 5811 5812 5812 5812 5813 5813 5813 5813 5813 5814 5814 5814 5815 5815 5815 5815 5815 5815 5814 5813 5813 5812 5811 5810 5809 5808 5807 5805 5804 5802 5800 5798 5796 5794 5792 5789 5787 5784 5782 5779 5776 5773
5807 5807 5807 5807 5808 5808 5809 5809 5808 5809 5809 5809 5810 5810 5810 5810 5810 5809 5809 5808 5807 5806 5805 5803 5802 5801 5799 5797 5795 5793 5791 5789 5787 5784 5782 5779 5776 5773 5770 5767 5764 5761 5757
5800 5801 5802 5802 5803 5803 5803 5803 5803 5804 5804 5804 5804 5805 5804 5804 5804 5803 5802 5801 5799 5798 5797 5795 5793 5791 5789 5787 5784 5782 5780 5777 5775 5772 5768 5765 5762 5759 5755 5752 5748 5744 5741
5795 5796 5796 5796 5797 5797 5797 5798 5798 5798 5798 5798 5797 5798 5797 5797 5796 5795 5794 5793 5791 5789 5788 5785 5783 5781 5778 5776 5773 5770 5767 5764 5761 5758 5754 5750 5747 5743 5739 5735 5731 5727 5723
5788 5788 5789 5790 5791 5791 5791 5791 5791 5791 5791 5791 5791 5790 5790 5789 5788 5787 5785 5784 5782 5780 5778 5775 5773 5770 5767 5764 5761 5758 5754 5751 5747 5743 5739 5735 5730 5726 5722 5717 5713 5708 5704
5781 5781 5782 5783 5784 5784 5784 5784 5784 5784 5784 5783 5783 5782 5782 5781 5779 5778 5776 5774 5772 5770 5767 5765 5762 5758 5755 5752 5748 5744 5740 5736 5732 5727 5723 5718 5714 5709 5704 5699 5694 5688 5683
5774 5774 5775 5776 5777 5777 5777 5777 5777 5777 5777 5776 5775 5774 5773 5771 5770 5768 5767 5764 5762 5759 5757 5754 5751 5747 5743 5739 5735 5730 5726 5722 5717 5712 5706 5701 5696 5691 5686 5681 5675 5670 5665
5766 5767 5767 5768 5769 5770 5770 5769 5769 5769 5769 5768 5767 5766 5764 5763 5761 5759 5757 5754 5752 5749 5746 5742 5739 5735 5730 5725 5721 5716 5711 5706 5701 5695 5690 5684 5678 5673 5667 5662 5656 5651 5646
5759 5760 5761 5761 5762 5762 5762 5763 5762 5762 5761 5760 5759 5757 5755 5754 5752 5749 5747 5744 5741 5738 5734 5730 5726 5721 5717 5712 5707 5701 5696 5690 5684 5679 5673 5667 5661 5655 5649 5643 5637 5632 5627
5753 5754 5755 5756 5756 5756 5756 5756 5755 5754 5753 5752 5750 5749 5747 5745 5742 5740 5737 5733 5730 5726 5722 5717 5713 5708 5703 5698 5692 5686 5680 5674 5668 5662 5656 5649 5643 5637 5631 5626 5620 5615 5610
5747 5748 5749 5749 5750 5750 5749 5749 5748 5747 5746 5745 5743 5741 5739 5736 5733 5730 5727 5723 5719 5715 5710 5705 5700 5695 5690 5684 5678 5672 5665 5659 5653 5646 5639 5633 5627 5621 5615 5610 5604 5599 5595
5742 5743 5743 5744 5743 5743 5743 5742 5741 5740 5739 5738 5736 5734 5731 5728 5724 5721 5717 5713 5708 5704 5699 5694 5689 5683 5677 5671 5665 5658 5652 5645 5638 5631 5624 5618 5612 5606 5601 5595 5590 5585 5581
5737 5738 5738 5738 5738 5738 5737 5736 5735 5734 5732 5730 5728 5725 5722 5719 5715 5711 5708 5703 5699 5694 5689 5684 5678 5672 5665 5659 5652 5645 5639 5632 5625 5618 5611 5605 5599 5593 5588 5583 5578 5574 5569
5732 5733 5733 5733 5732 5732 5731 5730 5729 5727 5725 5722 5720 5717 5713 5710 5706 5702 5698 5694 5689 5684 5679 5673 5667 5661 5655 5648 5641 5635 5628 5621 5614 5607 5601 5594 5588 5582 5577 5572 5568 5563 5559
5728 5728 5728 5728 5727 5726 5725 5723 5722 5720 5717 5714 5711 5708 5705 5701 5697 5693 5689 5685 5680 5675 5669 5664 5658 5652 5646 5639 5632 5626 5619 5612 5605 5598 5592 5586 5580 5574 5569 5564 5559 5554 5550
5723 5723 5723 5722 5721 5720 5718 5716 5714 5712 5709 5706 5703 5700 5697 5693 5690 5685 5681 5677 5672 5667 5662 5656 5651 5645 5638 5632 5625 5618 5612 5605 5598 5592 5586 5579 5573 5568 5562 5557 5552 5547 5543
5719 5718 5717 5716 5715 5713 5711 5709 5707 5704 5702 5699 5696 5693 5689 5686 5682 5678 5674 5670 5665 5660 5655 5650 5644 5638 5632 5626 5619 5613 5606 5600 5593 5587 5581 5575 5569 5563 5557 5552 5547 5542 5537
5714 5713 5712 5710 5709 5707 5705 5702 5700 5697 5695 5692 5689 5686 5682 5679 5675 5672 5668 5663 5659 5654 5649 5644 5639 5633 5627 5621 5615 5609 5602 5596 5589 5583 5577 5571 5565 5559 5553 5548 5542 5537 5533
5708 5707 5706 5704 5702 5700 5698 5696 5693 5691 5688 5685 5682 5679 5676 5673 5669 5665 5662 5658 5654 5649 5644 5639 5634 5629 5623 5617 5611 5605 5599 5592 5586 5580 5574 5568 5562 5556 5550 5545 5539 5534 5529